Location: Keppel Henge
(44.7900°N, 80.9447°W)
Time: 22:25:23
(UTC-05:00)

Vanguard 1 Rocket - Visible Passes

Search period start: 18 January 2018 00:00
Search period end: 28 January 2018 00:00
Orbit: 656 x 4222 km, 34.3° (Epoch: 17 January)

Date Brightness Start Highest point End Pass type
(mag) Time Alt. Az. Time Alt. Az. Time Alt. Az.
18 Jan 10.7 06:18:37 10° SSW 06:27:12 20° SSE 06:33:02 10° ESE visible
19 Jan 11.0 05:07:44 10° S 05:15:24 16° SSE 05:21:07 10° ESE visible
20 Jan 11.4 04:00:23 10° SSE 04:03:15 11° SSE 04:05:52 10° SE visible
20 Jan 10.4 06:19:28 10° SSW 06:30:21 26° SSE 06:37:07 10° ESE visible
21 Jan 10.8 05:07:21 10° SSW 05:18:30 22° SSE 05:25:56 10° ESE visible
22 Jan 11.2 03:56:37 10° S 04:06:18 16° SSE 04:13:30 10° ESE visible
22 Jan 10.2 06:20:49 10° SW 06:33:29 32° SSE 06:40:52 10° ESE visible
23 Jan 11.5 02:50:20 10° SSE 02:53:47 11° SE 02:56:55 10° SE visible
23 Jan 10.6 05:07:51 10° SSW 05:21:34 28° SSE 05:30:02 10° ESE visible
24 Jan 10.9 03:55:48 10° SSW 04:09:16 23° SSE 04:18:24 10° ESE visible
24 Jan 10.0 06:22:28 10° SW 06:36:34 38° S 06:44:25 10° ESE visible
25 Jan 11.3 02:46:45 11° S 02:56:39 16° SE 03:05:09 10° ESE visible
25 Jan 10.3 05:08:50 10° SW 05:24:35 34° SSE 05:33:47 10° ESE visible
26 Jan 10.7 03:58:54 14° SSW 04:12:11 29° SSE 04:22:32 10° E visible
26 Jan 9.8 06:24:20 10° WSW 06:39:38 44° S 06:47:51 10° ESE visible
27 Jan 11.1 02:53:05 19° S 02:59:27 22° SSE 03:10:15 10° ESE visible
27 Jan 10.2 05:10:29 10° SW 05:27:35 41° SSE 05:37:20 10° E visible
